Wind_Speed
10 10 11 12 13 12 11 9 5 4 7 9 10 9 8 8 6 6 8 9 8 6 5 5 5 4 2 2 3 4 4 1 2
11 11 12 12 12 11 10 10 9 10 11 11 9 9 8 6 4 5 3 4 6 4 4 3 4 3 5 1 1 3 3 2 2
12 11 11 11 11 12 11 11 10 9 8 8 7 7 6 4 4 2 1 5 5 4 3 2 3 3 2 3 5 4 2 3 5
11 11 10 10 11 11 11 9 7 6 5 5 6 7 7 5 3 2 4 6 6 4 1 2 3 1 2 3 4 4 5 3 3
10 9 9 9 9 9 8 6 5 4 4 6 6 4 3 2 2 2 5 7 6 1 4 4 6 5 4 5 6 6 6 5 4
11 9 9 9 9 8 7 5 4 4 4 5 4 3 3 4 5 6 7 8 7 7 7 6 6 7 7 7 7 8 8 8 8
13 9 9 9 9 8 7 6 4 4 3 2 3 4 5 6 6 7 7 8 7 8 7 7 7 8 8 8 8 7 8 8 8
15 13 11 10 10 9 7 6 5 4 4 4 4 5 6 8 8 8 8 8 7 6 8 7 6 6 7 8 8 8 8 9 9
15 14 12 12 10 10 9 8 6 5 5 5 6 7 8 8 8 8 8 6 9 11 8 6 6 6 7 8 8 9 9 10 10
16 14 13 13 12 11 9 8 7 7 6 7 8 8 8 8 8 8 7 7 8 8 7 7 7 7 8 9 10 11 12 12 12
17 16 16 14 13 10 10 9 8 8 8 7 7 7 7 7 8 8 6 6 6 6 7 7 7 8 9 10 11 12 13 14 14
18 18 20 16 14 12 12 12 11 9 9 8 7 7 7 7 8 8 6 6 6 5 5 7 8 8 9 12 13 14 16 16 15
20 23 22 19 17 14 14 13 12 11 9 8 7 7 7 8 9 7 6 5 5 5 6 8 10 10 12 12 14 16 18 17 16
24 25 21 21 20 18 16 14 13 12 9 8 7 7 7 6 6 6 6 5 6 6 8 11 9 11 10 14 16 16 17 18 19
27 24 23 23 25 23 19 15 14 13 10 9 7 7 6 5 4 4 5 7 7 8 11 10 12 12 13 17 17 18 17 20 20
26 27 26 28 28 25 20 17 17 15 12 9 8 8 7 6 5 5 6 8 8 11 10 13 14 15 18 19 19 18 19 18 19
28 28 31 31 29 27 24 20 19 18 14 10 8 6 8 8 8 9 9 9 10 11 13 16 18 19 22 22 22 22 19 19 18
32 30 31 33 32 30 25 22 21 19 16 12 9 5 5 7 9 10 11 12 12 13 15 18 20 24 24 24 24 22 22 21 17
34 32 34 35 33 31 27 24 22 21 18 14 11 10 9 5 5 9 11 13 14 16 18 21 22 22 24 23 22 23 23 20 18
37 33 36 38 36 33 29 27 25 22 19 16 13 11 11 11 11 10 11 14 17 21 21 20 22 21 21 21 23 23 23 21 21
Wind_Direction
126 123 131 143 158 170 181 186 190 158 126 121 122 125 119 87 88 77 38 9 9 1 38 64 51 36 56 193 263 300 328 303 310
131 126 123 127 134 139 141 142 138 126 118 114 117 130 140 121 115 91 51 350 340 57 49 49 68 31 39 348 305 301 277 306 319
138 131 128 128 129 131 131 130 126 121 118 122 135 159 180 142 118 103 241 301 322 316 333 3 88 68 40 60 112 123 51 227 255
144 140 137 136 136 135 134 130 125 120 113 128 148 164 166 161 172 227 246 288 303 326 14 233 271 335 270 262 261 277 297 294 298
154 147 145 144 144 141 138 136 138 131 139 136 156 180 190 208 249 279 288 290 309 272 256 282 297 296 307 306 297 294 296 291 287
172 163 159 158 159 157 156 160 156 150 147 137 155 214 249 255 261 274 279 286 299 283 283 290 299 298 304 303 302 299 294 290 283
182 178 173 172 176 177 180 179 174 172 179 182 217 251 261 265 266 272 281 291 285 278 285 294 295 300 307 308 307 302 299 297 295
189 192 188 189 192 195 200 196 201 212 231 248 257 262 271 271 273 278 282 287 266 273 296 298 297 300 307 313 317 316 312 308 305
194 195 204 201 205 206 205 209 221 234 255 269 268 273 275 278 282 285 285 274 256 280 299 304 304 303 310 312 316 317 316 313 313
203 204 214 205 204 204 217 223 234 239 252 257 273 284 289 289 289 291 290 284 275 276 285 293 299 303 307 311 312 311 311 309 308
209 213 213 206 204 219 230 236 237 246 259 271 281 287 291 292 290 294 297 294 285 278 283 291 294 301 304 308 311 312 312 309 307
215 220 214 211 215 227 230 235 235 250 257 268 275 287 297 299 295 295 300 301 299 296 298 302 304 303 302 306 310 311 308 308 306
218 213 215 217 223 231 231 232 238 243 250 264 277 283 289 295 297 295 303 305 301 296 293 313 308 305 304 307 311 311 308 306 306
218 216 218 221 224 236 234 234 235 237 240 253 267 274 283 294 298 297 303 307 309 301 302 320 316 315 314 315 314 313 311 307 307
220 218 220 225 229 234 231 232 234 231 235 246 256 268 268 275 288 294 288 303 304 302 312 319 312 309 320 322 319 315 310 307 306
228 222 224 229 232 234 232 233 228 228 227 235 247 255 244 254 253 263 273 287 285 303 304 308 311 314 318 315 313 312 311 308 306
234 228 228 231 232 228 229 233 231 228 228 234 245 246 247 239 255 260 264 268 278 291 298 307 308 310 311 309 311 310 308 305 302
236 231 232 231 234 232 233 233 231 232 230 231 233 232 234 240 262 248 253 258 272 284 292 298 299 302 303 303 303 303 303 304 304
240 238 234 233 234 230 232 232 230 232 233 232 237 244 256 260 260 254 253 259 268 279 290 294 296 296 298 299 299 299 301 302 301
239 241 237 234 229 227 230 231 230 229 233 235 238 246 256 262 259 271 257 262 270 283 292 295 297 296 294 294 295 295 293 291 297
Height
1533 1534 1535 1535 1537 1539 1540 1541 1542 1542 1542 1542 1543 1544 1544 1544 1543 1544 1544 1544 1545 1544 1543 1543 1543 1543 1542 1541 1541 1542 1541 1541 1541
1535 1535 1536 1537 1538 1539 1540 1541 1542 1543 1543 1544 1545 1544 1544 1544 1544 1544 1545 1546 1545 1544 1544 1543 1543 1543 1542 1541 1541 1541 1541 1541 1541
1536 1537 1537 1538 1539 1540 1541 1542 1543 1544 1544 1544 1544 1544 1544 1544 1544 1545 1546 1546 1546 1545 1544 1543 1543 1543 1542 1541 1541 1540 1539 1540 1540
1537 1538 1539 1540 1541 1541 1542 1543 1543 1543 1544 1544 1544 1543 1544 1545 1545 1545 1545 1545 1544 1546 1544 1543 1542 1543 1541 1540 1540 1539 1540 1539 1539
1537 1539 1540 1540 1542 1543 1543 1543 1544 1544 1544 1544 1544 1543 1544 1544 1545 1545 1545 1544 1544 1543 1543 1541 1542 1541 1540 1540 1539 1537 1539 1537 1537
1537 1538 1540 1541 1542 1542 1543 1544 1544 1544 1544 1544 1543 1544 1544 1544 1544 1544 1544 1544 1542 1541 1541 1540 1541 1539 1538 1538 1538 1536 1537 1536 1535
1536 1538 1539 1540 1541 1542 1542 1542 1543 1544 1544 1544 1543 1543 1543 1543 1543 1543 1542 1542 1539 1539 1540 1539 1539 1538 1537 1535 1536 1535 1535 1534 1533
1534 1535 1537 1539 1541 1542 1542 1542 1543 1543 1543 1543 1542 1542 1542 1541 1541 1541 1541 1540 1538 1537 1537 1537 1538 1536 1536 1535 1534 1534 1532 1532 1531
1532 1534 1536 1537 1540 1540 1541 1542 1542 1543 1542 1542 1541 1541 1541 1540 1539 1539 1539 1538 1537 1536 1536 1535 1535 1535 1534 1534 1533 1532 1531 1530 1529
1530 1532 1534 1536 1537 1538 1539 1541 1541 1541 1542 1542 1541 1540 1539 1538 1537 1538 1537 1536 1536 1535 1535 1534 1534 1534 1533 1532 1531 1530 1529 1528 1527
1527 1531 1532 1534 1536 1537 1538 1539 1540 1540 1540 1540 1539 1538 1538 1537 1536 1535 1534 1534 1534 1534 1533 1533 1533 1532 1532 1530 1529 1527 1526 1525 1524
1526 1528 1529 1532 1534 1535 1536 1537 1538 1539 1539 1538 1537 1536 1536 1535 1535 1534 1533 1532 1532 1532 1532 1531 1531 1531 1530 1528 1526 1524 1523 1522 1521
1523 1525 1527 1529 1531 1532 1534 1535 1536 1537 1536 1536 1535 1534 1534 1533 1533 1532 1532 1531 1531 1531 1530 1529 1529 1528 1527 1526 1524 1522 1520 1519 1518
1520 1523 1526 1527 1528 1530 1532 1533 1534 1535 1535 1534 1534 1533 1532 1531 1530 1530 1530 1530 1529 1529 1528 1527 1526 1526 1524 1523 1521 1519 1517 1515 1514
1517 1520 1521 1524 1526 1528 1529 1530 1532 1532 1533 1532 1532 1531 1530 1529 1528 1528 1528 1528 1527 1527 1526 1525 1524 1523 1521 1519 1517 1515 1514 1512 1510
1513 1516 1518 1521 1523 1525 1527 1528 1529 1529 1530 1530 1530 1529 1528 1527 1526 1526 1526 1526 1525 1524 1523 1522 1520 1519 1517 1516 1513 1511 1510 1508 1506
1507 1511 1513 1517 1519 1521 1522 1524 1525 1526 1527 1527 1527 1526 1527 1525 1524 1524 1523 1522 1522 1521 1519 1518 1516 1514 1513 1511 1509 1507 1505 1503 1501
1503 1506 1509 1512 1514 1516 1519 1520 1521 1523 1523 1524 1524 1523 1522 1522 1521 1521 1520 1519 1518 1517 1516 1515 1513 1510 1508 1506 1504 1502 1500 1498 1497
1497 1500 1504 1505 1508 1511 1514 1516 1517 1519 1519 1520 1519 1520 1519 1519 1518 1517 1516 1516 1516 1515 1514 1512 1509 1506 1504 1501 1499 1496 1495 1493 1492
1492 1495 1497 1498 1501 1505 1509 1511 1513 1515 1515 1515 1515 1515 1515 1515 1515 1513 1513 1513 1512 1511 1510 1507 1505 1501 1499 1496 1494 1491 1490 1488 1486